Tracking 18942 objects as of 17-Jan-2018
HD Live streaming from Space Station
objects crossing your sky now

COSMOS 980

Track COSMOS 980 now!
10-day predictions
COSMOS 980 is classified as:


NORAD ID: 10587
Int'l Code: 1978-005E
Perigee: 1,469.7 km
Apogee: 1,482.7 km
Inclination: 74.0 °
Period: 115.3 minutes
Semi major axis: 7847 km
RCS: 0.688 m2 (medium)
Launch date: January 10, 1978
Source: Commonwealth of Independent States (former USSR) (CIS)
Launch site: PLESETSK MISSILE AND SPACE COMPLEX (PKMTR)
aabbcc
Your satellite tracking list
Your tracking list is empty




NASA's NSSDC Master Catalog

Two Line Element Set (TLE):
1 10587U 78005E   18015.80657122 -.00000029 +00000-0 -86937-4 0  9997
2 10587 074.0313 134.8715 0008302 330.8772 185.9993 12.48902433818910
Source of the keplerian elements: AFSPC